SL-14 DEB, 45299

Orbit data source: Space-Track

SL-14 DEB, 45299 is space debris in LEO originally from a launch on Thu, 15 Aug 1991 UTC launched from the Plesetsk Missile And Space Complex (PKMTR). Debris objects in space refer to the collection of defunct objects orbiting the Earth. Examples of debris include non-operational satellites, rocket bodies, and fragments generated from explosions, collisions, or faulty payload assembly.

Loading next visibility...
Identifier
45299, 1991-056AM
Orbit
LEO
Country
Flag of CISCIS
Related business
Manufacturer
Unknown
Mission
Spacecraft
Bus & Motor
Unknown
Mass
Unknown
Launch date (UTC)
1991-08-15 (34 years ago)
Launch vehicle
Unknown
Launch site
Plesetsk Missile And Space Complex (PKMTR)
Object type
Payload
Rocket body
Debris
Shape & HBR
Unknown shape, 0.4 m
Radar Cross Section
Medium (>0.1 m² and <1 m²)

Expand to show TLE details & history
Last TLE update: 17 hours ago

TLE from 17 hours ago
0 SL-14 DEB
1 45299U 91056AM  26038.02993218  .00002289  00000-0  60233-2 0  9990
2 45299  82.6314 267.3600 0121680 341.7403  17.9366 13.13283734285708
Epoch: 2026-02-07T00:43Z
TLE epoch observation values (Epoch: 2026-02-07T00:43:06.140Z)
Latitude
-0.00004°
Longitude
119.4251°
Altitude
1,125.53 km
Speed
7.332 km/s
True Right ascension
17h 49m 26s
True Declination
0° 00' 00"
Sunlit
Object was in daylight at epoch
Visualization orbit readout
Latitude
Unknown
Longitude
Unknown
Altitude
Unknown
Speed
Unknown
Apparent Right ascension
Unknown
Apparent Declination
Unknown
Sunlit
N/A
Visualization observer readout
Local Sidereal Time
19:24:31
Azimuth
Unknown
Elevation
Unknown
Doppler factor
Unknown
Orbital elements
Apogee altitude
1,300.034 km
Perigee altitude
1,115.424 km
Semi-major axis
7,585.866 km
Eccentricity
0.01217
Inclination
82.6314°
RAAN
267.36°
Arg. of periapsis
341.7403°
True anomaly
18.37231°
Mean anomaly
17.9366°
Eccentric anomaly
18.15382°
Mean motion
3.285 °/min
Orbital period
109.59 mins
BSTAR
0.0060233
Loading maneuver chart data...
Computing Atmospheric mass density...
Loading historical data...
Loading historical data...
Loading historical data...
Loading historical data...
Loading historical data...
Loading historical data...
Loading historical data...

Documentation

Showing up to 5 results
|